Location: Dillon
(41.1766°N, 107.0923°W)
Time: 05:37:30
(UTC+00:00)

KKS-1 - Visible Passes

Search period start: 28 June 2022 00:00
Search period end: 08 July 2022 00:00
Orbit: 636 x 647 km, 98.2° (Epoch: 27 June)

Date Brightness Start Highest point End Pass type
(mag) Time Alt. Az. Time Alt. Az. Time Alt. Az.
28 Jun ? 04:19:59 10° NE 04:23:36 24° E 04:24:38 22° ESE visible
28 Jun ? 05:56:09 10° N 06:00:07 32° WNW 06:02:15 21° WSW visible
29 Jun ? 04:43:28 10° NNE 04:47:43 42° E 04:48:53 34° SE visible
29 Jun ? 06:20:46 10° NNW 06:23:55 19° WNW 06:26:30 12° WSW visible
30 Jun ? 05:07:16 10° NNE 05:11:46 78° ESE 05:13:08 44° S visible
30 Jun ? 06:46:16 10° NW 06:47:37 11° WNW 06:48:56 10° WNW visible
01 Jul ? 03:56:46 10° ENE 03:58:50 13° E 03:59:46 12° ESE visible
01 Jul ? 05:31:18 10° N 05:35:43 58° WNW 05:37:23 35° SW visible
02 Jul ? 04:19:28 10° NE 04:23:03 23° E 04:24:00 21° ESE visible
02 Jul ? 05:55:35 10° N 05:59:35 33° WNW 06:01:37 22° WSW visible
03 Jul ? 04:42:55 10° NNE 04:47:10 41° E 04:48:15 35° SE visible
03 Jul ? 06:20:11 10° NNW 06:23:22 19° WNW 06:25:51 13° WSW visible
04 Jul ? 05:06:43 10° NNE 05:11:12 75° ESE 05:12:28 46° S visible
04 Jul ? 06:45:36 10° NW 06:47:04 11° WNW 06:48:32 10° W visible
05 Jul ? 03:56:19 10° ENE 03:58:16 13° E 03:59:05 12° ESE visible
05 Jul ? 05:30:44 10° N 05:35:09 60° WNW 05:36:42 37° SW visible
06 Jul ? 04:18:56 10° NE 04:22:28 22° E 04:23:19 21° ESE visible
06 Jul ? 05:55:00 10° N 05:59:02 33° WNW 06:00:56 23° WSW visible
07 Jul ? 04:42:22 10° NNE 04:46:36 40° E 04:47:32 35° SE visible
07 Jul ? 06:19:34 10° NNW 06:22:48 20° WNW 06:25:09 14° WSW visible
